Regional Weather Roundup
Issued by NWS

Home | Current Version | Previous Version | Text Only | Print | Product List | Glossary Off
Versions: 1 2 3 4 5 6 7 8 9 10 11 12 13 14 15 16 17 18 19 20 21 22 23 24 25 26 27 28 29 30 31 32 33 34 35 36 37 38 39 40 41 42 43 44 45 46 47 48 49 50

000
ASUS43 KLSX 250359
RWRMO

WEATHER SUMMARY FOR MISSOURI
NATIONAL WEATHER SERVICE SPRINGFIELD MO
1100 PM CDT FRI MAR 24 2017

NOTE: "FAIR" INDICATES FEW OR NO CLOUDS BELOW 12,000 FEET WITH NO
       SIGNIFICANT WEATHER AND/OR OBSTRUCTIONS TO VISIBILITY.
       CURRENT SKY AND/OR WEATHER CONDITIONS ARE NOT AVAILABLE FOR
       CHILLICOTHE AND FARMINGTON.

MOZ001>031-035>038-043-044-053-054-250500-
...NORTHERN AND WESTERN MISSOURI...

CITY           SKY/WX    TMP DP  RH WIND       PRES   REMARKS
KANSAS CTY INT CLOUDY    57  56  96 N6        29.80F
KANSAS C DTWN  CLOUDY    60  57  89 CALM      29.79F
LEE`S SUMMIT   CLOUDY    57  57 100 E6        29.80F
ST JOSEPH      CLOUDY    52  52 100 N21       29.84F
CHILLICOTHE      N/A     58  57  97 E6        29.85F
KIRKSVILLE     CLOUDY    55  55 100 E7        29.89F

$$
MOZ066>068-077>081-088>096-101>105-250500-
...SOUTHWEST MISSOURI...

CITY           SKY/WX    TMP DP  RH WIND       PRES   REMARKS
SPRINGFIELD    LGT RAIN  56  52  86 SE25      29.83F
JOPLIN         MOCLDY    57  54  89 SE8       29.79F

$$
MOZ032>034-039>042-045>050-055>058-069>072-250500-
...CENTRAL MISSOURI...

CITY           SKY/WX    TMP DP  RH WIND       PRES   REMARKS
COLUMBIA       LGT RAIN  57  57 100 SE10      29.91F FOG
JEFFERSON CITY RAIN      60  57  89 SE8       29.91F FOG
ROLLA          HVY RAIN  57  57 100 SW10      29.94R FOG
SEDALIA        CLOUDY    60  48  64 SE22G30   29.80F
WARRENSBURG    CLOUDY    57  52  82 SE3       29.79R
OSAGE BEACH    LGT RAIN N/A N/A N/A S8        29.93S

$$
MOZ051-052-059>065-250500-
...EAST CENTRAL MISSOURI...

CITY           SKY/WX    TMP DP  RH WIND       PRES   REMARKS
ST LOUIS INTL  CLOUDY    69  57  65 SE15G22   29.94F
SPIRIT OF STL  MOCLDY    69  58  67 SE8G18    29.92S
ST CHARLES     CLOUDY    67  58  72 SE17      29.92F

$$
MOZ072>076-082>087-097>100-106>115-250500-
...SOUTH CENTRAL AND SOUTHEAST MISSOURI...

CITY           SKY/WX    TMP DP  RH WIND       PRES   REMARKS
CAPE GIRARDEAU CLOUDY    67  55  65 SE15      29.97F
FARMINGTON     CLOUDY    65  58  78 SE13G21   29.94F
POPLAR BLUFF   CLOUDY    67  59  75 SE16G23   29.92F
WEST PLAINS    RAIN      61  58  90 S10       29.93F FOG

$$




USA.gov is the U.S. government's official web portal to all federal, state and local government web resources and services.